Regional Weather Roundup
Issued by NWS

Home | Current Version | Previous Version | Text Only | Print | Product List | Glossary On
Versions: 1 2 3 4 5 6 7 8 9 10 11 12 13 14 15 16 17 18 19 20 21 22 23 24 25 26 27 28 29 30 31 32 33 34 35 36 37 38 39 40 41 42 43 44 45 46 47 48 49 50
000
ASUS43 KDTX 062101
RWRMI
MICHIGAN HOURLY REGIONAL WEATHER ROUNDUP
NATIONAL WEATHER SERVICE DETROIT/PONTIAC MI
400 PM EST FRI MAR 06 2015

NOTE: "FAIR" INDICATES FEW OR NO CLOUDS BELOW 12,000 FEET WITH NO
SIGNIFICANT WEATHER AND/OR OBSTRUCTION TO VISIBILITY.

MIZ047>049-052>055-059>063-066>070-074>076-081>083-062200-
SOUTHEAST LOWER MICHIGAN

CITY           SKY/WX    TMP DP  RH WIND       PRES   REMARKS
ADRIAN         MOSUNNY   20   9  62 SW20      30.33F WCI   4
ALMA           PTSUNNY   23   5  46 S12G20    30.21F WCI  12
ANN ARBOR      SUNNY     20   6  55 SW14      30.31S WCI   7
BAD AXE        SUNNY     25   3  38 SW15G21   30.19F WCI  12
CARO           SUNNY     23   2  41 SW10G25   30.20F WCI  12
DETROIT CITY   MOSUNNY   23   4  44 SW20G28   30.30F WCI   8
DETROIT        PTSUNNY   22   7  52 SW18      30.33F WCI   7
FLINT          MOSUNNY   26   2  35 SW15G22   30.24F WCI  14
GROSSE ILE     SUNNY     23   9  54 S17       30.31F WCI   9
HILLSDALE      MOSUNNY   22   4  45 SW15      30.26F WCI   9
HOWELL         SUNNY     24   2  38 SW15G21   30.24F WCI  11

CITY           SKY/WX    TMP DP  RH WIND       PRES   REMARKS
JACKSON        MOSUNNY   22   2  42 SW17      30.26F WCI   8
LAMBERTVILLE   SUNNY     27  10  50 SW10G18   30.34F WCI  17
LANSING        PTSUNNY   22   3  44 S21G26    30.24F WCI   6
LAPEER         FAIR      25  -1  33 SW13G22   30.23F WCI  13
MASON          PTSUNNY   23   2  41 SW7       30.24F WCI  15
MONROE         SUNNY     23  10  58 SW12      30.31F WCI  12
MT. CLEMENS    PTSUNNY   23   6  47 S17G23    30.27F WCI   9
PONTIAC        PTSUNNY   22   1  40 SW17      30.25S WCI   8
PORT HOPE        N/A     24   1  36 SW10G23   30.16F WCI  14
PORT HURON     MOSUNNY   21   9  58 S17       30.27F WCI   7
TRI CITIES     PTSUNNY   23   3  42 SW20      30.20F WCI   8
TROY           MOSUNNY   25   3  38 SW16      30.31S WCI  12
SAGINAW HB     SUNNY     23   7  50 SW21G28   30.21F WCI   8
$$
MIZ043>046-050>051-056>058-064>065-071>073-077>080-062200-
SOUTHWEST LOWER MICHIGAN

CITY           SKY/WX    TMP DP  RH WIND       PRES   REMARKS
BATTLE CREEK   CLOUDY    22   5  48 S14       30.24F WCI   9
BENTON HARBOR  CLOUDY    22   7  52 S15G22    30.24F WCI   9
BIG RAPIDS     CLOUDY    24   7  48 SW10G21   30.12F WCI  13
COLDWATER      CLOUDY    22   3  44 SW13G20   30.27F WCI  10
FREMONT        MOCLDY    22   7  51 SW14      30.16F WCI   9
HOLLAND        CLOUDY    25   6  44 S18       30.21F WCI  11
GRAND RAPIDS   MOSUNNY   23   4  44 S17       30.21F WCI   9
IONIA          FAIR      24   6  46 S16G22    30.20F WCI  11
KALAMAZOO      MOSUNNY   22   5  48 S18G25    30.25F WCI   7
LUDINGTON      CLOUDY    24  17  74 S20G30    30.14S WCI   9
MARSHALL       CLOUDY    21   2  43 S12G17    30.25F WCI  10
MOUNT PLEASANT MOSUNNY   24   3  39 S16       30.16F WCI  11
MUSKEGON       CLOUDY    21   8  57 S20G32    30.18F WCI   6
SOUTH HAVEN    CLOUDY    25   4  39 S14G20    30.23F WCI  13
$$
MIZ016>042-062200-
NORTHERN LOWER MICHIGAN

CITY           SKY/WX    TMP DP  RH WIND       PRES   REMARKS
ALPENA         CLOUDY    30   5  34 SW16G25   30.05F WCI  19
BEAVER ISLAND  CLOUDY    25  19  80 SW20G30   29.99F WCI  11
BELLAIRE       PTSUNNY   31  10  42 SW15G21   30.03F WCI  20
CADILLAC       MOSUNNY   24  11  59 S15G23    30.04F WCI  11
CHARLEVOIX     PTSUNNY   28  12  50 S3G24     30.03F
FRANKFORT      CLOUDY    25  18  75 S14G29    30.08S WCI  13
GAYLORD        PTSUNNY   26   8  46 S18G28    29.99F WCI  13
GRAYLING       SUNNY     28  11  48 S15G22    30.05F WCI  16
HARBOR SPRINGS SUNNY     29  12  48 SW14G21   30.01F WCI  18
HOUGHTON LAKE  PTSUNNY   24   8  50 S12       30.08F WCI  13
MANISTEE       MOSUNNY   27  12  54 SW22G32   30.11S WCI  12
OSCODA         SUNNY     24  10  54 S20       30.12F WCI   9
PELLSTON       PTSUNNY   29  10  45 SW12G26   30.00F HAZE    WCI  19
ROGERS CITY    PTSUNNY   30   9  41 SW12G20   30.03F WCI  21
TRAVERSE CITY  PTSUNNY   31  11  43 SW12G21   30.02F WCI  22
$$
MIZ007>008-015-062200-
EASTERN UPPER MICHIGAN

CITY           SKY/WX    TMP DP  RH WIND       PRES   REMARKS
KINROSS        PTSUNNY   28  16  59 SW17G28   29.95F WCI  16
MACKINAC ISLAN SUNNY     27  14  58 SW12G18   29.98F WCI  17
NEWBERRY       CLOUDY    23  18  80 S25G35    29.93R HAZE    WCI   7
S. S. MARIE    CLOUDY    25  13  60 SW12G21   29.95F WCI  14
MUNISING         N/A     27   8  44 S16G22    29.91F WCI  15
$$
MIZ004>006-011>014-085-062200-
CENTRAL UPPER MICHIGAN

CITY           SKY/WX    TMP DP  RH WIND       PRES   REMARKS
MANISTIQUE     CLOUDY    26  17  68 SW15G28   29.95F WCI  13
ESCANABA       MOSUNNY   23  16  74 S17G23    29.96F WCI   9
MENOMINEE      MOSUNNY   28  10  47 SW14G22   29.98F WCI  17
SAWYER-GWINN   MOSUNNY   30  10  43 SW16      29.85F WCI  19
$$
MIZ001>003-009>011-084-062200-
WESTERN UPPER MICHIGAN

CITY           SKY/WX    TMP DP  RH WIND       PRES   REMARKS
IRON MOUNTAIN  SUNNY     31  11  43 SW10      29.89F WCI  22
HOUGHTON       SUNNY     25  11  55 W22G31    29.87R WCI  10
COPPER HARBOR    N/A     28  13  53 N9G20     29.87S WCI  19
IRONWOOD       SUNNY     28  10  47 W15       29.89F WCI  17
$$

ABBREVIATIONS USED IN REMARKS
   TC - TEMPERATURE IN CELSIUS
  WCI - WIND CHILL INDEX
   HX - HEAT INDEX
  VSB - VISIBILITY



USA.gov is the U.S. government's official web portal to all federal, state and local government web resources and services.